Camarillo, CA

12:27 PM PDT on May 23, 2018 (GMT -0700)
Camarillo

Weather History for KCMA - January, 2013

Change the Weather History Date:

Sunday, January 20, 2013

  Actual Average Record
Temperature  
Mean Temperature 64 °F 54 °F  
Max Temperature 82 °F 66 °F 88 °F (1968)
Min Temperature 46 °F 43 °F 29 °F (1937)
Degree Days  
Heating Degree Days 1 11  
Month to date heating degree days 226 220  
Since 1 July heating degree days 772 901  
Cooling Degree Days 0 0  
Month to date cooling degree days 17 0  
Year to date cooling degree days 17 0  
Growing Degree Days 17 (Base 50)    
Moisture  
Dew Point 13 °F    
Average Humidity 20    
Maximum Humidity 35    
Minimum Humidity 5    
Precipitation  
Precipitation 0.00 in 0.12 in 1.21 in (1969)
Month to date precipitation 0.01 2.65  
Year to date precipitation 0.01 2.65  
Since 1 July precipitation 2.72  
Sea Level Pressure  
Sea Level Pressure 30.11 in    
Wind  
Wind Speed 10 mph (NE)    
Max Wind Speed 25 mph    
Max Gust Speed 31 mph    
Visibility 10 miles    
Events      
T = Trace of Precipitation, MM = Missing Value Source: NWS Daily Summary

Daily Weather History Graph

Daily Weather History Graph

Search for Another Location

Airport or City:

Astronomy

Jan. 20, 2013 Rise Set
Actual Time 7:00 AM PST 5:15 PM PST
Civil Twilight 6:33 AM PST 5:41 PM PST
Nautical Twilight 6:02 AM PST 6:12 PM PST
Astronomical Twilight 5:32 AM PST 6:42 PM PST
Moon 12:18 PM PST (1/20) 1:38 AM PST (1/20)
Length of Visible Light 11h 08m
Length of Day
10h 14m
Waxing Gibbous, 67% of the Moon is Illuminated
Jan 20
Waxing Gibbous
Jan 26
Full
Feb 3
Last Quarter
Feb 9
New
Feb 17
First Quarter

Hourly Weather History & Observations

Time (PST) Temp. Dew Point Humidity Pressure Visibility Wind Dir Wind Speed Gust Speed Precip Events Conditions
12:55 AM 57.0 °F 12.9 °F 18% 30.15 in 10.0 mi NE 10.4 mph - N/A   Clear
1:55 AM 61.0 °F 10.0 °F 13% 30.15 in 10.0 mi ENE 11.5 mph - N/A   Clear
2:55 AM 55.9 °F 12.0 °F 18% 30.14 in 10.0 mi NE 9.2 mph - N/A   Clear
3:55 AM 55.0 °F 12.9 °F 19% 30.14 in 10.0 mi NE 8.1 mph - N/A   Clear
4:55 AM 57.9 °F 10.9 °F 16% 30.14 in 10.0 mi Calm Calm - N/A   Clear
5:55 AM 55.0 °F 12.9 °F 19% 30.14 in 10.0 mi Calm Calm - N/A   Clear
6:55 AM 52.0 °F 15.1 °F 23% 30.14 in 10.0 mi East 5.8 mph - N/A   Clear
7:55 AM 55.9 °F 17.1 °F 22% 30.14 in 10.0 mi Calm Calm - N/A   Clear
8:55 AM 70.0 °F 10.9 °F 10% 30.16 in 10.0 mi East 11.5 mph - N/A   Clear
9:55 AM 75.0 °F 9.0 °F 8% 30.16 in 10.0 mi ENE 19.6 mph - N/A   Clear
10:55 AM 78.1 °F 8.1 °F 7% 30.14 in 10.0 mi ENE 20.7 mph 27.6 mph N/A   Clear
11:55 AM 80.1 °F 7.0 °F 6% 30.10 in 10.0 mi ENE 21.9 mph 27.6 mph N/A   Unknown
1:55 PM 82.0 °F 3.9 °F 5% 30.05 in 10.0 mi ENE 19.6 mph 27.6 mph N/A   Clear
2:55 PM 81.0 °F 3.0 °F 5% 30.04 in 10.0 mi ENE 21.9 mph 29.9 mph N/A   Clear
3:55 PM 79.0 °F 3.0 °F 5% 30.05 in 10.0 mi ENE 17.3 mph - N/A   Clear
4:55 PM 75.9 °F 3.9 °F 6% 30.06 in 10.0 mi NE 15.0 mph - N/A   Clear
5:55 PM 63.0 °F 21.0 °F 20% 30.08 in 10.0 mi WNW 5.8 mph - N/A   Clear
6:55 PM 61.0 °F 24.1 °F 24% 30.10 in 10.0 mi WNW 3.5 mph - N/A   Clear
7:55 PM 54.0 °F 26.1 °F 34% 30.11 in 10.0 mi WNW 5.8 mph - N/A   Clear
8:55 PM 57.0 °F 15.1 °F 19% 30.11 in 10.0 mi NNE 4.6 mph - N/A   Clear
9:55 PM 52.0 °F 19.9 °F 28% 30.12 in 10.0 mi WNW 3.5 mph - N/A   Clear
10:55 PM 52.0 °F 17.1 °F 25% 30.11 in 10.0 mi NNE 6.9 mph - N/A   Clear
11:55 PM 53.1 °F 15.1 °F 22% 30.10 in 10.0 mi ENE 10.4 mph - N/A   Clear